User: anonymous   Login
Location: Unspecified
(0.0000°N, 0.0000°E)
Time: 07:32:16
(UTC+00:00)
Language:

NOAA 9 - Orbit

View from above orbital plane
View from above orbital plane
View from above satellite
View from above satellite

Ground track
Ground track

The orbit data is extracted from the following two-line orbital elements,

1 15427U 84123A   18115.93005562 -.00000009 +00000-0 +17649-4 0  9994
2 15427 098.8421 061.8461 0015388 144.4897 259.2177 14.16034084722400
Epoch (UTC): 25 April 2018 22:19:16
Eccentricity: 0.0015388
inclination: 98.8421°
perigee height: 827 km
apogee height: 850 km
right ascension of ascending node: 61.8461°
argument of perigee: 144.4897°
revolutions per day: 14.16034084
mean anomaly at epoch: 259.2177°
orbit number at epoch: 72240

The dashed part of the orbit path shows where the satellite is in the earth's shadow,  

DLR